Location: ??????????
(42.1626°N, 44.1160°E)
Time: 21:16:32
(UTC+00:00)

SKYMED 2 - Pass Details

Date: 03 March 2021
Orbit: 621 x 623 km, 97.9° (Epoch: 18 April)

Event Time Altitude Azimuth Distance (km) Brightness Sun altitude
Rises 15:18:52 0° 10° (N) 2,914 6.9 -5.0°
Reaches altitude 10° 15:21:04 10° 9° (N) 2,002 6.1 -5.5°
Maximum altitude 15:25:25 75° 286° (WNW) 649 3.9 -6.3°
Drops below altitude 10° 15:29:44 10° 200° (SSW) 1,986 6.5 -7.1°
Sets 15:31:54 0° 199° (SSW) 2,887 7.3 -7.5°
